GW2510 Weather Reports


time (UTC)temp
C
wind
direction
speed
KPH
gust
KPH
rain 1hr
cm
rain 24hr
cm
rain mn
cm
humidity
%
barometer
mb
20260905205141 33 255 3.2 4.8 0.00 0.00 0.00 64 1011.6
20260905204641 33 296 3.2 4.8 0.00 0.00 0.00 65 1011.9
20260905204136 33 255 4.8 6.4 0.00 0.00 0.00 64 1011.9
20260905203631 33 291 1.6 6.4 0.00 0.00 0.00 64 1011.8
20260905203126 33 291 3.2 4.8 0.00 0.00 0.00 62 1011.9
20260905202622 32 296 3.2 6.4 0.00 0.00 0.00 61 1011.7
20260905202117 32 278 4.8 6.4 0.00 0.00 0.00 58 1011.9
20260905201612 32 318 1.6 9.7 0.00 0.00 0.00 59 1012.1
20260905201111 32 278 3.2 11.3 0.00 0.00 0.00 57 1012.1
20260905200607 30 286 4.8 9.7 0.00 0.00 0.00 56 1012.1
20260905195555 30 257 4.8 11.3 0.00 0.00 0.00 64 1012.3
20260905195051 30 300 4.8 11.3 0.00 0.00 0.00 67 1012.4
20260905194551 31 286 4.8 6.4 0.00 0.00 0.00 73 1012.5
20260905194050 32 323 3.2 6.4 0.00 0.00 0.00 69 1012.4
20260905193545 32 276 1.6 4.8 0.00 0.00 0.00 69 1012.5
20260905193040 33 277 1.6 3.2 0.00 0.00 0.00 67 1012.3
20260905192535 33 347 1.6 4.8 0.00 0.00 0.00 64 1012.2
20260905192032 35 20 1.6 1.6 0.00 0.00 0.00 62 1012.5
20260905191531 35 350 1.6 3.2 0.00 0.00 0.00 62 1012.6
20260905191030 35 357 1.6 3.2 0.00 0.00 0.00 61 1012.5
20260905190528 35 94 3.2 3.2 0.00 0.00 0.00 61 1012.4
20260905190028 35 95 0.0 0.0 0.00 0.00 0.00 61 1012.6
20260905185527 34 67 1.6 3.2 0.00 0.00 0.00 62 1012.6
20260905185027 34 302 3.2 3.2 0.00 0.00 0.00 61 1012.8
20260905184527 33 165 1.6 6.4 0.00 0.00 0.00 65 1012.9
20260905184025 33 278 3.2 4.8 0.00 0.00 0.00 64 1013.0
20260905183525 34 274 4.8 9.7 0.00 0.00 0.00 61 1013.1
20260905183021 34 229 1.6 3.2 0.00 0.00 0.00 64 1013.3
20260905182520 34 277 1.6 3.2 0.00 0.00 0.00 64 1013.1
20260905182015 33 263 4.8 4.8 0.00 0.00 0.00 63 1013.3
20260905181510 33 272 3.2 3.2 0.00 0.00 0.00 64 1013.2
20260905181009 34 275 3.2 4.8 0.00 0.00 0.00 65 1013.4
20260905180504 33 280 0.0 3.2 0.00 0.00 0.00 64 1013.4
20260905175959 33 164 1.6 4.8 0.00 0.00 0.00 66 1013.5
20260905175458 33 88 3.2 6.4 0.00 0.00 0.00 65 1013.6
20260905174954 33 66 1.6 3.2 0.00 0.00 0.00 64 1013.9
20260905174449 33 251 3.2 3.2 0.00 0.00 0.00 66 1013.8
20260905173945 32 317 0.0 3.2 0.00 0.00 0.00 66 1013.7
20260905173441 32 221 1.6 6.4 0.00 0.00 0.00 69 1013.6
20260905172936 32 170 1.6 4.8 0.00 0.00 0.00 66 1013.7
20260905172434 32 101 6.4 6.4 0.00 0.00 0.00 66 1013.7
20260905171930 32 44 1.6 9.7 0.00 0.00 0.00 65 1013.9
20260905171427 32 72 0.0 3.2 0.00 0.00 0.00 66 1013.7
20260905170923 32 158 1.6 4.8 0.00 0.00 0.00 66 1013.7
20260905170419 32 52 3.2 6.4 0.00 0.00 0.00 67 1014.0
20260905165918 32 214 1.6 3.2 0.00 0.00 0.00 65 1014.1
20260905165413 32 117 3.2 4.8 0.00 0.00 0.00 66 1014.1
20260905164908 32 142 3.2 6.4 0.00 0.00 0.00 66 1014.1
20260905164403 31 137 0.0 4.8 0.00 0.00 0.00 65 1014.2
20260905163858 31 85 6.4 9.7 0.00 0.00 0.00 65 1014.0
20260905163354 31 158 0.0 4.8 0.00 0.00 0.00 68 1014.1
20260905162850 30 158 3.2 4.8 0.00 0.00 0.00 68 1014.1
20260905162350 30 132 3.2 9.7 0.00 0.00 0.00 71 1014.1
20260905161844 31 168 1.6 3.2 0.00 0.00 0.00 68 1014.1
20260905161344 30 248 0.0 1.6 0.00 0.00 0.00 67 1014.2
20260905160843 29 130 3.2 4.8 0.00 0.00 0.00 70 1014.3
20260905160337 28 140 3.2 9.7 0.00 0.00 0.00 71 1014.1
20260905155832 28 119 0.0 4.8 0.00 0.00 0.00 71 1014.2
20260905155331 29 108 3.2 6.4 0.00 0.00 0.00 70 1014.2
20260905154830 30 100 3.2 6.4 0.00 0.00 0.00 67 1014.4
20260905154326 30 142 6.4 11.3 0.00 0.00 0.00 67 1014.4
20260905153821 30 132 3.2 11.3 0.00 0.00 0.00 67 1014.2
20260905153318 30 124 3.2 6.4 0.00 0.00 0.00 67 1014.4
20260905152817 30 94 1.6 6.4 0.00 0.00 0.00 68 1014.5
20260905152316 30 123 4.8 9.7 0.00 0.00 0.00 68 1014.2
20260905151812 29 76 3.2 6.4 0.00 0.00 0.00 70 1014.3
20260905151308 29 302 4.8 9.7 0.00 0.00 0.00 69 1014.0
20260905150807 29 196 8.0 11.3 0.00 0.00 0.00 69 1014.2
20260905150307 29 170 6.4 9.7 0.00 0.00 0.00 71 1014.5
20260905145804 28 76 3.2 11.3 0.00 0.00 0.00 73 1014.6
20260905145259 28 100 8.0 12.9 0.00 0.00 0.00 73 1014.6
20260905144758 28 130 1.6 12.9 0.00 0.00 0.00 75 1014.4
20260905144254 28 106 3.2 11.3 0.00 0.00 0.00 74 1014.3
20260905143752 28 191 4.8 11.3 0.00 0.00 0.00 74 1014.3
20260905143253 28 190 6.4 6.4 0.00 0.00 0.00 76 1014.3
20260905142751 27 142 3.2 9.7 0.00 0.00 0.00 76 1014.5
20260905142246 27 74 3.2 9.7 0.00 0.00 0.00 77 1014.3
20260905141742 28 95 6.4 9.7 0.00 0.00 0.00 77 1014.2
20260905141237 28 94 4.8 4.8 0.00 0.00 0.00 79 1014.2
20260905140733 27 156 3.2 11.3 0.00 0.00 0.00 81 1014.4
20260905140227 27 92 4.8 9.7 0.00 0.00 0.00 82 1014.3
20260905135726 27 134 3.2 12.9 0.00 0.00 0.00 84 1014.4
20260905135222 27 106 4.8 6.4 0.00 0.00 0.00 83 1014.3
20260905134722 27 147 12.9 14.5 0.00 0.00 0.00 83 1014.4
20260905134221 27 169 3.2 9.7 0.00 0.00 0.00 86 1014.3
20260905133716 26 128 4.8 9.7 0.00 0.00 0.00 88 1014.2
20260905133211 25 93 6.4 9.7 0.00 0.00 0.00 91 1014.3
20260905132710 25 123 6.4 11.3 0.00 0.00 0.00 94 1014.2
20260905132206 24 44 1.6 6.4 0.00 0.00 0.00 95 1014.3
20260905131701 25 88 6.4 6.4 0.00 0.00 0.00 94 1014.1
20260905131156 25 151 0.0 0.0 0.00 0.00 0.00 94 1014.0
20260905130656 25 151 0.0 0.0 0.00 0.00 0.00 94 1013.9
20260905130155 24 151 0.0 0.0 0.00 0.00 0.00 95 1013.9
20260905125650 24 151 0.0 0.0 0.00 0.00 0.00 95 1013.9
20260905125146 24 151 0.0 0.0 0.00 0.00 0.00 95 1014.0
20260905124642 25 151 0.0 0.0 0.00 0.00 0.00 95 1013.8
20260905124138 25 151 0.0 0.0 0.00 0.00 0.00 94 1013.8
20260905123632 25 151 0.0 0.0 0.00 0.00 0.00 94 1014.0
20260905123130 25 151 0.0 0.0 0.00 0.00 0.00 94 1013.8
20260905122629 24 151 0.0 0.0 0.00 0.00 0.00 95 1013.7
20260905122124 24 151 0.0 0.0 0.00 0.00 0.00 96 1013.6
20260905121619 24 151 0.0 0.0 0.00 0.00 0.00 96 1013.6
20260905121114 24 150 0.0 1.6 0.00 0.00 0.00 97 1013.6
20260905120613 23 150 0.0 0.0 0.00 0.00 0.00 97 1013.7
20260905120108 23 150 0.0 0.0 0.00 0.00 0.00 97 1013.6
20260905115608 23 150 0.0 0.0 0.00 0.00 0.00 98 1013.4
20260905115102 23 150 0.0 0.0 0.00 0.00 0.00 97 1013.6
20260905114602 23 150 0.0 0.0 0.00 0.00 0.00 97 1013.5
20260905114101 23 150 0.0 0.0 0.00 0.00 0.00 97 1013.5
20260905113556 23 150 0.0 0.0 0.00 0.00 0.00 97 1013.4
20260905113051 23 150 0.0 0.0 0.00 0.00 0.00 98 1013.4
20260905112546 23 150 0.0 0.0 0.00 0.00 0.00 98 1013.4
20260905112042 23 150 0.0 0.0 0.00 0.00 0.00 98 1013.5
20260905111537 23 150 0.0 0.0 0.00 0.00 0.00 98 1013.5
20260905111036 23 150 0.0 0.0 0.00 0.00 0.00 98 1013.5
20260905110535 23 150 0.0 0.0 0.00 0.00 0.00 98 1013.4
20260905110031 23 150 0.0 0.0 0.00 0.00 0.00 98 1013.2
20260905105530 22 150 0.0 0.0 0.00 0.00 0.00 98 1013.4
20260905105030 22 150 0.0 0.0 0.00 0.00 0.00 97 1013.5
20260905104526 22 150 0.0 0.0 0.00 0.00 0.00 97 1013.7
20260905104025 22 150 0.0 0.0 0.00 0.00 0.00 97 1013.4
20260905103521 22 150 0.0 0.0 0.00 0.00 0.00 97 1013.4
20260905103017 23 150 0.0 0.0 0.00 0.00 0.00 97 1013.4
20260905102512 22 150 0.0 0.0 0.00 0.00 0.00 97 1013.4
20260905102009 22 150 0.0 0.0 0.00 0.00 0.00 97 1013.6
20260905101507 22 170 0.0 0.0 0.00 0.00 0.00 97 1013.4
20260905101005 22 170 0.0 0.0 0.00 0.00 0.00 97 1013.4
20260905100502 22 170 0.0 0.0 0.00 0.00 0.00 97 1013.5
20260905100001 22 170 0.0 0.0 0.00 0.00 0.00 97 1013.3
20260905095456 22 170 0.0 0.0 0.00 0.00 0.00 97 1013.4
20260905094951 22 170 0.0 0.0 0.00 0.00 0.00 97 1013.3
20260905094446 22 170 0.0 0.0 0.00 0.00 0.00 97 1013.4
20260905093945 22 170 0.0 0.0 0.00 0.00 0.00 97 1013.5
20260905093440 22 170 0.0 0.0 0.00 0.00 0.00 97 1013.3
20260905092936 22 170 0.0 0.0 0.00 0.00 0.00 97 1013.5
20260905092431 22 170 0.0 0.0 0.00 0.00 0.00 97 1013.4
20260905091926 22 170 0.0 0.0 0.00 0.00 0.00 97 1013.3
20260905091427 22 170 0.0 0.0 0.00 0.00 0.00 97 1013.3
20260905090926 22 170 0.0 0.0 0.00 0.00 0.00 97 1013.1
20260905090421 22 170 0.0 0.0 0.00 0.00 0.00 97 1013.3
20260905085921 22 170 0.0 0.0 0.00 0.00 0.00 97 1013.2
20260905085420 22 170 0.0 0.0 0.00 0.00 0.00 97 1013.2
20260905084916 22 170 0.0 0.0 0.00 0.00 0.00 97 1013.0
20260905084415 22 170 0.0 0.0 0.00 0.00 0.00 97 1013.1
20260905083910 22 170 0.0 0.0 0.00 0.00 0.00 97 1012.9
20260905083406 22 170 0.0 0.0 0.00 0.00 0.00 97 1012.8
20260905082901 22 170 0.0 0.0 0.00 0.00 0.00 97 1013.0
20260905082357 22 170 0.0 0.0 0.00 0.00 0.00 97 1012.8
20260905081852 22 170 0.0 0.0 0.00 0.00 0.00 97 1012.9
20260905081347 22 170 0.0 0.0 0.00 0.00 0.00 97 1012.9
20260905080846 22 170 0.0 0.0 0.00 0.00 0.00 97 1012.9
20260905080340 22 170 0.0 0.0 0.00 0.00 0.00 97 1012.9
20260905075839 22 170 0.0 0.0 0.00 0.00 0.00 97 1012.8
20260905075339 22 170 0.0 0.0 0.00 0.00 0.00 97 1012.6
20260905074839 23 170 0.0 0.0 0.00 0.00 0.00 97 1012.5
20260905074335 22 170 0.0 0.0 0.00 0.00 0.00 97 1012.9
20260905073830 22 170 0.0 0.0 0.00 0.00 0.00 97 1012.8
20260905073325 23 170 0.0 0.0 0.00 0.00 0.00 97 1012.8
20260905072819 23 170 0.0 0.0 0.00 0.00 0.00 97 1012.9
20260905072314 23 170 0.0 0.0 0.00 0.00 0.00 97 1012.9
20260905071811 23 170 0.0 0.0 0.00 0.00 0.00 97 1013.0
20260905071307 23 170 0.0 0.0 0.00 0.00 0.00 97 1012.9
20260905070801 23 170 0.0 0.0 0.00 0.00 0.00 97 1013.1
20260905070259 23 170 0.0 0.0 0.00 0.00 0.00 97 1013.0
20260905065757 23 170 0.0 0.0 0.00 0.00 0.00 97 1013.2
20260905065256 23 170 0.0 0.0 0.00 0.00 0.00 97 1013.0
20260905064751 23 170 0.0 0.0 0.00 0.00 0.00 97 1013.2
20260905064247 23 170 0.0 0.0 0.00 0.00 0.00 97 1013.3
20260905063745 23 170 0.0 0.0 0.00 0.00 0.00 97 1013.3
20260905063241 23 170 0.0 0.0 0.00 0.00 0.00 97 1013.2
20260905062737 23 170 0.0 0.0 0.00 0.00 0.00 97 1013.2
20260905062237 23 170 0.0 0.0 0.00 0.00 0.00 97 1013.4
20260905061732 23 170 0.0 0.0 0.00 0.00 0.00 97 1013.4
20260905061227 23 170 0.0 0.0 0.00 0.00 0.00 97 1013.5
20260905060726 23 170 0.0 0.0 0.00 0.00 0.00 97 1013.3
20260905060223 23 170 0.0 0.0 0.00 0.00 0.00 97 1013.6
20260905055721 23 170 0.0 0.0 0.00 0.00 0.00 97 1013.6
20260905055217 23 170 0.0 0.0 0.00 0.00 0.00 97 1013.5
20260905054712 23 170 0.0 0.0 0.00 0.00 0.00 97 1013.2
20260905054209 23 170 0.0 0.0 0.00 0.00 0.00 96 1013.6
20260905053707 23 170 0.0 0.0 0.00 0.00 0.00 97 1013.5
20260905053203 23 170 0.0 0.0 0.00 0.00 0.00 97 1013.6
20260905052702 23 170 0.0 0.0 0.00 0.00 0.00 96 1013.8
20260905052157 24 170 0.0 0.0 0.00 0.00 0.00 96 1013.7
20260905051652 24 170 0.0 0.0 0.00 0.00 0.00 97 1013.6
20260905051149 24 170 0.0 0.0 0.00 0.00 0.00 97 1013.6
20260905050645 24 170 0.0 0.0 0.00 0.00 0.00 97 1013.5
20260905050141 24 170 0.0 0.0 0.00 0.00 0.00 97 1013.6
20260905045641 24 170 0.0 0.0 0.00 0.00 0.00 96 1013.6
20260905045137 23 170 0.0 0.0 0.00 0.00 0.00 96 1013.4
20260905044637 24 170 0.0 0.0 0.00 0.00 0.00 96 1013.6
20260905044131 24 170 0.0 0.0 0.00 0.00 0.00 96 1013.4
20260905043630 24 170 0.0 0.0 0.00 0.00 0.00 96 1013.6
20260905043125 24 170 0.0 0.0 0.00 0.00 0.00 96 1013.7
20260905042624 24 170 0.0 0.0 0.00 0.00 0.00 96 1013.5
20260905042119 24 170 0.0 0.0 0.00 0.00 0.00 96 1013.7
20260905041615 24 170 0.0 0.0 0.00 0.00 0.00 96 1013.7
20260905041110 24 170 0.0 0.0 0.00 0.00 0.00 96 1013.8
20260905040610 24 170 0.0 0.0 0.00 0.00 0.00 96 1013.7
20260905040109 24 170 0.0 0.0 0.00 0.00 0.00 95 1013.9
20260905035604 24 170 0.0 0.0 0.00 0.00 0.00 95 1013.9
20260905035101 24 170 0.0 0.0 0.00 0.00 0.00 96 1013.9
20260905034557 24 170 0.0 0.0 0.00 0.00 0.00 96 1013.9
20260905034056 25 170 0.0 0.0 0.00 0.00 0.00 96 1014.0
20260905033550 25 170 0.0 0.0 0.00 0.00 0.00 96 1013.9
20260905033047 25 170 0.0 0.0 0.00 0.00 0.00 95 1014.0
20260905032546 25 170 0.0 0.0 0.00 0.00 0.00 95 1013.9
20260905032047 25 170 0.0 0.0 0.00 0.00 0.00 95 1013.9
20260905031543 25 170 0.0 0.0 0.00 0.00 0.00 95 1014.0
20260905031042 25 170 0.0 0.0 0.00 0.00 0.00 94 1013.9
20260905030537 25 170 0.0 0.0 0.00 0.00 0.00 94 1013.9
20260905030037 25 170 0.0 0.0 0.00 0.00 0.00 94 1014.1
20260905025533 25 170 0.0 0.0 0.00 0.00 0.00 94 1014.0
20260905025029 25 170 0.0 0.0 0.00 0.00 0.00 94 1013.9
20260905024524 25 170 0.0 0.0 0.00 0.00 0.00 95 1013.9
20260905024019 25 170 0.0 0.0 0.00 0.00 0.00 95 1013.7
20260905023515 25 170 0.0 0.0 0.00 0.00 0.00 94 1013.9
20260905023015 25 170 0.0 0.0 0.00 0.00 0.00 94 1013.5
20260905022508 25 170 0.0 0.0 0.00 0.00 0.00 94 1013.6
20260905022004 25 170 0.0 0.0 0.00 0.00 0.00 94 1013.7
20260905021503 25 170 0.0 0.0 0.00 0.00 0.00 94 1013.7
20260905020959 25 170 0.0 0.0 0.00 0.00 0.00 93 1013.8
20260905020459 26 170 0.0 0.0 0.00 0.00 0.00 93 1013.9
20260905015959 26 170 0.0 0.0 0.00 0.00 0.00 93 1013.8
20260905015457 26 170 0.0 0.0 0.00 0.00 0.00 93 1013.7
20260905014956 26 170 0.0 0.0 0.00 0.00 0.00 93 1013.6
20260905014452 26 170 0.0 0.0 0.00 0.00 0.00 93 1013.5
20260905013947 26 170 0.0 0.0 0.00 0.00 0.00 93 1013.5
20260905013444 26 170 0.0 0.0 0.00 0.00 0.00 93 1013.5
20260905012945 26 170 0.0 0.0 0.00 0.00 0.00 93 1013.5
20260905012440 26 170 0.0 0.0 0.00 0.00 0.00 92 1013.5
20260905011936 26 170 0.0 0.0 0.00 0.00 0.00 92 1013.5
20260905011432 26 170 0.0 0.0 0.00 0.00 0.00 92 1013.5
20260905010927 26 170 0.0 0.0 0.00 0.00 0.00 92 1013.2
20260905010422 26 170 0.0 0.0 0.00 0.00 0.00 92 1013.5
20260905005918 27 170 0.0 0.0 0.00 0.00 0.00 92 1013.5
20260905005414 27 170 0.0 0.0 0.00 0.00 0.00 91 1013.4
20260905004909 27 170 0.0 0.0 0.00 0.00 0.00 90 1013.2
20260905004409 27 170 0.0 0.0 0.00 0.00 0.00 88 1013.1
20260905003904 27 170 0.0 0.0 0.00 0.00 0.00 87 1013.1
20260905003401 28 170 0.0 0.0 0.00 0.00 0.00 88 1013.2
20260905002856 28 170 0.0 0.0 0.00 0.00 0.00 88 1013.0
20260905002355 28 170 0.0 0.0 0.00 0.00 0.00 88 1013.0
20260905001850 28 170 0.0 0.0 0.00 0.00 0.00 86 1013.1
20260905001350 29 170 0.0 0.0 0.00 0.00 0.00 85 1013.0
20260905000845 30 170 0.0 0.0 0.00 0.00 0.00 83 1013.0
20260905000341 30 170 0.0 0.0 0.00 0.00 0.00 83 1013.1
20260904235836 30 170 0.0 0.0 0.00 0.00 0.00 82 1013.1
20260904235331 31 172 0.0 0.0 0.00 0.00 0.00 79 1013.2
20260904234827 32 232 0.0 0.0 0.00 0.00 0.00 71 1013.1
20260904234326 33 232 0.0 0.0 0.00 0.00 0.00 71 1013.2
20260904233822 35 232 0.0 0.0 0.00 0.00 0.00 67 1013.1
20260904233318 35 232 0.0 0.0 0.00 0.00 0.00 65 1013.1
20260904232815 36 232 0.0 0.0 0.00 0.00 0.00 64 1013.1
20260904232311 36 232 0.0 0.0 0.00 0.00 0.00 61 1013.1
20260904231807 36 232 0.0 0.0 0.00 0.00 0.00 59 1013.1
20260904231307 35 232 0.0 0.0 0.00 0.00 0.00 61 1013.0
20260904230802 35 245 0.0 0.0 0.00 0.00 0.00 60 1013.1
20260904230300 35 287 0.0 0.0 0.00 0.00 0.00 60 1013.0
20260904225756 35 263 0.0 1.6 0.00 0.00 0.00 62 1013.0
20260904225249 35 230 0.0 0.0 0.00 0.00 0.00 61 1012.8
20260904224748 35 219 0.0 0.0 0.00 0.00 0.00 58 1012.9
20260904224244 35 218 0.0 0.0 0.00 0.00 0.00 60 1013.0
20260904223743 35 242 1.6 1.6 0.00 0.00 0.00 58 1013.0
20260904223238 35 251 0.0 3.2 0.00 0.00 0.00 57 1013.0
20260904222734 35 238 0.0 3.2 0.00 0.00 0.00 58 1013.1
20260904222230 35 271 1.6 3.2 0.00 0.00 0.00 58 1013.0
20260904221729 35 237 3.2 3.2 0.00 0.00 0.00 58 1013.0
20260904221224 35 266 0.0 1.6 0.00 0.00 0.00 57 1013.0
20260904220724 35 260 0.0 4.8 0.00 0.00 0.00 57 1012.9
20260904220219 35 224 3.2 4.8 0.00 0.00 0.00 56 1013.0
20260904215719 35 269 3.2 9.7 0.00 0.00 0.00 57 1013.1
20260904215215 35 308 1.6 4.8 0.00 0.00 0.00 58 1013.1
20260904214710 35 268 6.4 6.4 0.00 0.00 0.00 58 1013.0
20260904214205 36 206 3.2 6.4 0.00 0.00 0.00 56 1013.2
20260904213703 36 249 1.6 3.2 0.00 0.00 0.00 59 1013.3
20260904213200 36 270 1.6 4.8 0.00 0.00 0.00 56 1013.3
20260904212655 36 187 1.6 4.8 0.00 0.00 0.00 56 1013.2
20260904212150 36 245 3.2 6.4 0.00 0.00 0.00 55 1013.3
20260904211649 36 272 4.8 6.4 0.00 0.00 0.00 55 1013.4
20260904211145 36 278 4.8 6.4 0.00 0.00 0.00 53 1013.3
20260904210645 35 275 3.2 11.3 0.00 0.00 0.00 55 1013.3
20260904210140 36 185 6.4 9.7 0.00 0.00 0.00 55 1013.4
20260904205636 35 288 6.4 9.7 0.00 0.00 0.00 55 1013.4